Home   Weather   Matsuyama   Past weeks

Flag for Japan Past Weather in Matsuyama, Japan — Yesterday and Last 2 Weeks

Now
61 °F

Partly sunny.


Feels Like: 61 °F
Forecast: 47 / 66 °F
Wind: 9 mph from Southwest

Location: Matsuyama Airport

Current Time: Apr 27, 2017 at 6:23:19 pm

Latest Report: Apr 27, 2017 at 5:00 pm


Visibility: N/A

Pressure: 29.77 "Hg

Humidity: 52%

Dew Point: 43 °F

Location of MatsuyamaLocation

Past Weather in Matsuyama — Graph

°F

Matsuyama Temperature Yesterday

Maximum temperature yesterday: 61 °F (at 6:10 am)
Minimum temperature yesterday: 57 °F (at 9:00 pm)
Average temperature yesterday: 59 °F

High & Low Weather Summary for the Past Weeks

 TemperatureHumidityPressure
High73 °F (Apr 15, 11:00 am)100% (Apr 26, 10:00 am)30.21 "Hg (Apr 26, 10:00 am)
Low46 °F (Apr 13, 6:10 am)23% (Apr 14, 7:00 pm)29.39 "Hg (Apr 17, 9:27 pm)
Average63 °F67%29.90 "Hg
* Reported Apr 12 5:00 pm — Apr 27 5:00 pm, Matsuyama, Weather by CustomWeather, © 2017

Note: Actual official high and low records may vary slightly from our data, if they occured in-between our weather recording intervals... More about our weather records

Advertising

Matsuyama Weather History for the Previous 24 Hours

Scroll right to see more
 ConditionsComfort  
Time TempWeatherWind HumidityBarometerVisibility
5:00 pm
Thu, Apr 27
61 °FPartly sunny.9 mph52%29.77 "HgN/A
4:00 pm61 °FPartly sunny.6 mph68%29.77 "HgN/A
3:00 pm61 °FPartly sunny.8 mph63%29.80 "HgN/A
2:00 pm63 °FPartly sunny.7 mph59%29.80 "HgN/A
1:00 pm63 °FPartly sunny.9 mph59%29.80 "HgN/A
12:00 pm63 °FPartly sunny.7 mph56%29.80 "HgN/A
11:00 am61 °FPartly sunny.7 mph63%29.80 "HgN/A
10:00 am59 °FPartly sunny.9 mph68%29.80 "HgN/A
9:00 am59 °FPartly sunny.16 mph72%29.80 "HgN/A
8:00 am57 °FPartly sunny.14 mph77%29.80 "HgN/A
7:00 am57 °FPartly sunny.14 mph82%29.80 "HgN/A
6:10 am57 °FPartly sunny.12 mph88%29.77 "Hg5 mi
9:00 pm
Wed, Apr 26
57 °FPartly cloudy.6 mph100%29.86 "Hg5 mi
8:00 pm59 °FLight rain. Partly cloudy.6 mph94%29.83 "Hg6 mi
7:00 pm59 °FLight rain. Partly cloudy.7 mph94%29.83 "HgN/A
6:00 pm61 °FLight rain. Partly sunny.3 mph88%29.86 "HgN/A
Weather by CustomWeather, © 2017

See weather overviewHow to use our weather pages